This is the latest recevied weather packets stored in our database for station/object p43g-13. If no packets are shown the sender has not sent any weather packets the latest 10 day(s).
| Time | Temp. | Humidity | Pressure | Rain* | Wind** | Luminosity | Snow |
|---|---|---|---|---|---|---|---|
| 1787665774 | 30.56° C | 76% | 1013.8 hPa | 0 mm | - | 687 W/m² | - |
| 1787665473 | 30.56° C | 76% | 1013.6 hPa | 0 mm | - | 445 W/m² | - |
| 1787665162 | 30.56° C | 77% | 1013.8 hPa | 0 mm | - | 654 W/m² | - |
| 1787664862 | 30.56° C | 76% | 1013.7 hPa | 0 mm | - | 671 W/m² | - |
| 1787664562 | 31.11° C | 74% | 1013.5 hPa | 0 mm | - | 608 W/m² | - |
| 1787664262 | 30.56° C | 76% | 1013.7 hPa | 0 mm | - | 211 W/m² | - |
| 1787663962 | 30.56° C | 76% | 1013.8 hPa | 0 mm | - | 547 W/m² | - |
| 1787663661 | 30.56° C | 76% | 1013.6 hPa | 0 mm | - | 505 W/m² | - |
| 1787663363 | 30° C | 77% | 1013.4 hPa | 0 mm | - | 508 W/m² | - |
| 1787663062 | 30.56° C | 77% | 1013.8 hPa | 0 mm | - | 223 W/m² | - |
| 1787662762 | 30° C | 78% | 1013.6 hPa | 0 mm | - | 332 W/m² | - |
| 1787662462 | 30° C | 77% | 1013.8 hPa | 0 mm | - | 414 W/m² | - |
| 1787662162 | 30° C | 78% | 1013.9 hPa | 0 mm | - | 435 W/m² | - |
| 1787661862 | 30.56° C | 77% | 1013.7 hPa | 0 mm | - | 181 W/m² | - |
| 1787661561 | 30.56° C | 77% | 1013.5 hPa | 0 mm | - | 392 W/m² | - |
| 1787661262 | 30.56° C | 77% | 1013.6 hPa | 0 mm | - | 323 W/m² | - |
| 1787660962 | 29.44° C | 79% | 1013.6 hPa | 0 mm | - | 194 W/m² | - |
| 1787660650 | 29.44° C | 79% | 1013.5 hPa | 0 mm | - | 189 W/m² | - |
| 1787660350 | 30° C | 78% | 1013.5 hPa | 0 mm | - | 182 W/m² | - |
| 1787660050 | 30° C | 78% | 1013.6 hPa | 0 mm | - | 184 W/m² | - |
| 1787659738 | 30° C | 78% | 1013.5 hPa | 0 mm | - | 220 W/m² | - |
| 1787659438 | 30° C | 78% | 1013.5 hPa | 0 mm | - | 180 W/m² | - |
| 1787659139 | 29.44° C | 79% | 1013.4 hPa | 0 mm | - | 177 W/m² | - |
| 1787658825 | 29.44° C | 80% | 1013.2 hPa | 0 mm | - | 145 W/m² | - |
| 1787658527 | 29.44° C | 81% | 1012.9 hPa | 0 mm | - | 107 W/m² | - |
* Rain latest hour (hover to see other rain measurements)
** Current wind speed in m/s (hover to see current wind gust speed)